Time,TemperatureF,DewpointF,PressureIn,WindDirection,WindDirectionDegrees,WindSpeedMPH,WindSpeedGustMPH,Humidity,HourlyPrecipIn,Conditions,Clouds,dailyrainin,SoftwareType,DateUTC
2013-06-27 00:01:00,76.9,63.7,29.96,ENE,73,0.3,0.9,64,0.00,,,0.00,WUHU216HW,2013-06-27 07:01:00,
2013-06-27 00:06:00,76.7,63.5,29.96,North,357,0.4,0.4,64,0.00,,,0.00,WUHU216HW,2013-06-27 07:06:00,
2013-06-27 00:12:00,76.5,63.8,29.96,ENE,68,0.4,0.7,65,0.00,,,0.00,WUHU216HW,2013-06-27 07:12:00,
2013-06-27 00:17:00,76.3,63.6,29.96,North,7,0.4,0.7,65,0.00,,,0.00,WUHU216HW,2013-06-27 07:17:00,
2013-06-27 00:22:00,76.1,63.5,29.96,NE,45,0.2,0.2,65,0.00,,,0.00,WUHU216HW,2013-06-27 07:22:00,
2013-06-27 00:27:00,76.0,63.7,29.96,NNE,31,0.5,1.1,66,0.00,,,0.00,WUHU216HW,2013-06-27 07:27:00,
2013-06-27 00:32:00,75.8,63.6,29.96,North,0,0.0,0.0,66,0.00,,,0.00,WUHU216HW,2013-06-27 07:32:00,
2013-06-27 00:37:00,75.6,63.5,29.96,North,0,0.0,0.0,66,0.00,,,0.00,WUHU216HW,2013-06-27 07:37:00,
2013-06-27 00:42:00,75.2,63.1,29.96,NW,315,0.7,0.7,66,0.00,,,0.00,WUHU216HW,2013-06-27 07:42:00,
2013-06-27 00:47:00,75.2,63.6,29.96,NW,315,0.3,0.7,67,0.00,,,0.00,WUHU216HW,2013-06-27 07:47:00,
2013-06-27 00:52:00,74.9,63.2,29.96,North,356,0.6,0.7,67,0.00,,,0.00,WUHU216HW,2013-06-27 07:52:00,
2013-06-27 00:57:00,74.7,63.5,29.96,NNE,22,1.0,1.3,68,0.00,,,0.00,WUHU216HW,2013-06-27 07:57:00,
2013-06-27 01:02:00,74.7,63.5,29.96,North,0,0.0,0.0,68,0.00,,,0.00,WUHU216HW,2013-06-27 08:02:00,
2013-06-27 01:07:00,74.5,63.3,29.96,North,0,0.0,0.0,68,0.00,,,0.00,WUHU216HW,2013-06-27 08:07:00,
2013-06-27 01:12:00,74.5,63.3,29.96,North,0,0.0,0.0,68,0.00,,,0.00,WUHU216HW,2013-06-27 08:12:00,
2013-06-27 01:17:00,74.3,63.5,29.96,North,0,0.0,0.0,69,0.00,,,0.00,WUHU216HW,2013-06-27 08:17:00,
2013-06-27 01:22:00,74.2,63.4,29.96,North,0,0.0,0.0,69,0.00,,,0.00,WUHU216HW,2013-06-27 08:22:00,
2013-06-27 01:27:00,73.8,63.1,29.96,WNW,293,0.4,0.4,69,0.00,,,0.00,WUHU216HW,2013-06-27 08:27:00,
2013-06-27 01:32:00,73.8,63.1,29.96,NW,315,0.7,0.7,69,0.00,,,0.00,WUHU216HW,2013-06-27 08:32:00,
2013-06-27 01:37:00,74.0,63.2,29.96,NW,323,0.6,1.6,69,0.00,,,0.00,WUHU216HW,2013-06-27 08:37:00,
2013-06-27 01:42:00,74.3,63.1,29.96,North,0,0.6,1.3,68,0.00,,,0.00,WUHU216HW,2013-06-27 08:42:00,
2013-06-27 01:47:00,74.3,63.1,29.96,North,0,0.5,0.9,68,0.00,,,0.00,WUHU216HW,2013-06-27 08:47:00,
2013-06-27 01:52:00,74.2,62.9,29.96,North,356,0.4,0.4,68,0.00,,,0.00,WUHU216HW,2013-06-27 08:52:00,
2013-06-27 01:57:00,74.2,62.9,29.96,North,354,0.3,0.7,68,0.00,,,0.00,WUHU216HW,2013-06-27 08:57:00,
2013-06-27 02:02:00,74.0,62.8,29.96,North,0,0.2,0.2,68,0.00,,,0.00,WUHU216HW,2013-06-27 09:02:00,
2013-06-27 02:07:00,73.8,62.7,29.96,North,0,0.0,0.0,68,0.00,,,0.00,WUHU216HW,2013-06-27 09:07:00,
2013-06-27 02:12:00,73.8,62.7,29.96,North,0,0.0,0.0,68,0.00,,,0.00,WUHU216HW,2013-06-27 09:12:00,
2013-06-27 02:17:00,73.8,63.1,29.96,North,0,0.0,0.0,69,0.00,,,0.00,WUHU216HW,2013-06-27 09:17:00,
2013-06-27 02:22:00,73.4,62.7,29.96,North,0,0.0,0.0,69,0.00,,,0.00,WUHU216HW,2013-06-27 09:22:00,
2013-06-27 02:27:00,73.4,62.7,29.96,North,0,0.0,0.0,69,0.00,,,0.00,WUHU216HW,2013-06-27 09:27:00,
2013-06-27 02:32:00,73.4,62.7,29.96,NNW,338,0.2,0.2,69,0.00,,,0.00,WUHU216HW,2013-06-27 09:32:00,
2013-06-27 02:37:00,73.4,62.7,29.97,North,0,0.7,1.1,69,0.00,,,0.00,WUHU216HW,2013-06-27 09:37:00,
2013-06-27 02:42:00,73.3,62.6,29.97,North,0,0.3,0.4,69,0.00,,,0.00,WUHU216HW,2013-06-27 09:42:00,
2013-06-27 02:47:00,73.1,62.4,29.97,NNW,338,0.3,0.4,69,0.00,,,0.00,WUHU216HW,2013-06-27 09:47:00,
2013-06-27 02:52:00,73.3,63.0,29.96,NW,315,0.7,1.1,70,0.00,,,0.00,WUHU216HW,2013-06-27 09:52:00,
2013-06-27 02:57:00,73.4,63.2,29.97,WNW,285,1.2,1.6,70,0.00,,,0.00,WUHU216HW,2013-06-27 09:57:00,
2013-06-27 03:02:00,73.4,63.2,29.96,WNW,296,1.2,1.6,70,0.00,,,0.00,WUHU216HW,2013-06-27 10:02:00,
2013-06-27 03:07:00,73.4,63.2,29.96,WNW,301,1.3,2.0,70,0.00,,,0.00,WUHU216HW,2013-06-27 10:07:00,
2013-06-27 03:12:00,73.6,63.4,29.96,NW,312,1.1,1.3,70,0.00,,,0.00,WUHU216HW,2013-06-27 10:12:00,
2013-06-27 03:17:00,73.8,63.1,29.96,WNW,301,1.4,1.8,69,0.00,,,0.00,WUHU216HW,2013-06-27 10:17:00,
2013-06-27 03:22:00,73.8,63.1,29.96,WNW,294,1.4,2.0,69,0.00,,,0.00,WUHU216HW,2013-06-27 10:22:00,
2013-06-27 03:27:00,73.8,63.1,29.96,WNW,297,1.2,1.8,69,0.00,,,0.00,WUHU216HW,2013-06-27 10:27:00,
2013-06-27 03:32:00,73.8,63.1,29.96,WNW,294,1.6,2.0,69,0.00,,,0.00,WUHU216HW,2013-06-27 10:32:00,
2013-06-27 03:37:00,73.8,63.1,29.96,WNW,293,1.3,1.8,69,0.00,,,0.00,WUHU216HW,2013-06-27 10:37:00,
2013-06-27 03:42:00,73.8,63.1,29.96,WNW,290,1.1,1.3,69,0.00,,,0.00,WUHU216HW,2013-06-27 10:42:00,
2013-06-27 03:47:00,73.6,62.9,29.96,WNW,293,1.0,1.3,69,0.00,,,0.00,WUHU216HW,2013-06-27 10:47:00,
2013-06-27 03:52:00,73.4,63.2,29.97,WNW,293,1.2,1.8,70,0.00,,,0.00,WUHU216HW,2013-06-27 10:52:00,
2013-06-27 03:57:00,73.3,63.0,29.97,WNW,282,0.7,1.1,70,0.00,,,0.00,WUHU216HW,2013-06-27 10:57:00,
2013-06-27 04:02:00,73.1,62.8,29.97,North,0,0.0,0.0,70,0.00,,,0.00,WUHU216HW,2013-06-27 11:02:00,
2013-06-27 04:07:00,72.9,62.6,29.97,North,0,0.0,0.0,70,0.00,,,0.00,WUHU216HW,2013-06-27 11:07:00,
2013-06-27 04:12:00,72.5,62.3,29.97,North,0,0.0,0.0,70,0.00,,,0.00,WUHU216HW,2013-06-27 11:12:00,
2013-06-27 04:17:00,72.4,62.5,29.97,East,90,0.5,0.9,71,0.00,,,0.00,WUHU216HW,2013-06-27 11:17:00,
2013-06-27 04:22:00,71.8,61.6,29.97,North,0,0.0,0.0,70,0.00,,,0.00,WUHU216HW,2013-06-27 11:22:00,
2013-06-27 04:27:00,71.5,61.2,29.97,North,0,0.0,0.0,70,0.00,,,0.00,WUHU216HW,2013-06-27 11:27:00,
2013-06-27 04:32:00,71.1,61.2,29.97,North,0,0.0,0.0,71,0.00,,,0.00,WUHU216HW,2013-06-27 11:32:00,
2013-06-27 04:37:00,71.1,61.2,29.97,North,0,0.0,0.0,71,0.00,,,0.00,WUHU216HW,2013-06-27 11:37:00,
2013-06-27 04:42:00,70.9,61.4,29.97,North,0,0.0,0.0,72,0.00,,,0.00,WUHU216HW,2013-06-27 11:42:00,
2013-06-27 04:47:00,70.6,61.0,29.97,North,0,0.0,0.0,72,0.00,,,0.00,WUHU216HW,2013-06-27 11:47:00,
2013-06-27 04:52:00,70.4,60.8,29.97,North,0,0.0,0.0,72,0.00,,,0.00,WUHU216HW,2013-06-27 11:52:00,
2013-06-27 04:57:00,70.2,61.1,29.98,North,0,0.0,0.0,73,0.00,,,0.00,WUHU216HW,2013-06-27 11:57:00,
2013-06-27 05:02:00,70.2,61.1,29.98,North,0,0.0,0.0,73,0.00,,,0.00,WUHU216HW,2013-06-27 12:02:00,
2013-06-27 05:07:00,70.0,60.9,29.99,North,0,0.0,0.0,73,0.00,,,0.00,WUHU216HW,2013-06-27 12:07:00,
2013-06-27 05:12:00,70.0,60.9,29.99,North,0,0.0,0.0,73,0.00,,,0.00,WUHU216HW,2013-06-27 12:12:00,
2013-06-27 05:17:00,69.8,60.8,29.99,North,0,0.0,0.0,73,0.00,,,0.00,WUHU216HW,2013-06-27 12:17:00,
2013-06-27 05:22:00,69.7,60.6,29.99,North,0,0.0,0.0,73,0.00,,,0.00,WUHU216HW,2013-06-27 12:22:00,
2013-06-27 05:27:00,69.5,60.8,30.00,North,0,0.0,0.0,74,0.00,,,0.00,WUHU216HW,2013-06-27 12:27:00,
2013-06-27 05:32:00,69.3,60.6,30.00,North,0,0.0,0.0,74,0.00,,,0.00,WUHU216HW,2013-06-27 12:32:00,
2013-06-27 05:37:00,69.1,60.5,30.00,North,0,0.0,0.0,74,0.00,,,0.00,WUHU216HW,2013-06-27 12:37:00,
2013-06-27 05:42:00,68.9,60.3,30.00,North,0,0.0,0.0,74,0.00,,,0.00,WUHU216HW,2013-06-27 12:42:00,
2013-06-27 05:47:00,68.9,60.3,30.00,North,0,0.0,0.0,74,0.00,,,0.00,WUHU216HW,2013-06-27 12:47:00,
2013-06-27 05:52:00,68.9,60.3,30.01,North,0,0.0,0.0,74,0.00,,,0.00,WUHU216HW,2013-06-27 12:52:00,
2013-06-27 05:57:00,68.8,60.1,30.01,North,0,0.0,0.0,74,0.00,,,0.00,WUHU216HW,2013-06-27 12:57:00,
2013-06-27 06:02:00,68.6,60.3,30.01,North,0,0.0,0.0,75,0.00,,,0.00,WUHU216HW,2013-06-27 13:02:00,
2013-06-27 06:07:00,68.4,60.2,30.01,North,0,0.0,0.0,75,0.00,,,0.00,WUHU216HW,2013-06-27 13:07:00,
2013-06-27 06:12:00,68.6,60.8,30.01,North,0,0.0,0.0,76,0.00,,,0.00,WUHU216HW,2013-06-27 13:12:00,
2013-06-27 06:17:00,68.8,60.8,30.01,North,0,0.0,0.0,76,0.00,,,0.00,WUHU216HW,2013-06-27 13:17:00,
2013-06-27 06:22:00,69.1,61.2,30.01,North,0,0.0,0.0,76,0.00,,,0.00,WUHU216HW,2013-06-27 13:22:00,
2013-06-27 06:27:00,69.3,61.4,30.01,ESE,113,0.2,0.4,76,0.00,,,0.00,WUHU216HW,2013-06-27 13:27:00,
2013-06-27 06:32:00,69.8,61.8,30.01,ESE,113,0.2,0.2,76,0.00,,,0.00,WUHU216HW,2013-06-27 13:32:00,
2013-06-27 06:37:00,70.2,62.2,30.01,ESE,118,0.4,1.1,76,0.00,,,0.00,WUHU216HW,2013-06-27 13:37:00,
2013-06-27 06:42:00,70.9,62.9,30.01,SE,135,0.4,0.7,76,0.00,,,0.00,WUHU216HW,2013-06-27 13:42:00,
2013-06-27 06:47:00,71.3,62.9,30.01,SE,130,0.6,1.3,75,0.00,,,0.00,WUHU216HW,2013-06-27 13:47:00,
2013-06-27 06:52:00,71.6,63.3,30.01,SE,136,0.8,1.6,75,0.00,,,0.00,WUHU216HW,2013-06-27 13:52:00,
2013-06-27 06:57:00,72.4,64.0,30.01,SE,133,0.9,1.6,75,0.00,,,0.00,WUHU216HW,2013-06-27 13:57:00,
2013-06-27 07:02:00,72.7,64.4,30.02,SE,129,0.8,1.8,75,0.00,,,0.00,WUHU216HW,2013-06-27 14:02:00,
2013-06-27 07:07:00,73.1,64.4,30.02,SE,145,0.8,1.8,74,0.00,,,0.00,WUHU216HW,2013-06-27 14:07:00,
2013-06-27 07:12:00,73.6,64.4,30.02,SSE,154,1.1,2.5,73,0.00,,,0.00,WUHU216HW,2013-06-27 14:12:00,
2013-06-27 07:17:00,74.2,64.6,30.02,South,176,1.3,2.0,72,0.00,,,0.00,WUHU216HW,2013-06-27 14:17:00,
2013-06-27 07:22:00,74.5,64.9,30.02,South,179,1.2,1.8,72,0.00,,,0.00,WUHU216HW,2013-06-27 14:22:00,
2013-06-27 07:27:00,75.1,65.1,30.02,SE,140,1.1,2.2,71,0.00,,,0.00,WUHU216HW,2013-06-27 14:27:00,
2013-06-27 07:32:00,75.2,64.8,30.03,SSE,155,1.2,2.0,70,0.00,,,0.00,WUHU216HW,2013-06-27 14:32:00,
2013-06-27 07:37:00,75.2,64.8,30.03,SSE,161,1.4,2.5,70,0.00,,,0.00,WUHU216HW,2013-06-27 14:37:00,
2013-06-27 07:42:00,75.4,64.5,30.03,South,171,1.8,2.2,69,0.00,,,0.00,WUHU216HW,2013-06-27 14:42:00,
2013-06-27 07:47:00,75.2,63.9,30.03,SSE,165,1.9,2.5,68,0.00,,,0.00,WUHU216HW,2013-06-27 14:47:00,
2013-06-27 07:52:00,75.4,64.5,30.03,SSE,156,1.6,2.9,69,0.00,,,0.00,WUHU216HW,2013-06-27 14:52:00,
2013-06-27 07:57:00,75.6,64.3,30.03,SSE,166,1.7,2.5,68,0.00,,,0.00,WUHU216HW,2013-06-27 14:57:00,
2013-06-27 08:02:00,76.1,64.8,30.03,SE,125,1.8,2.7,68,0.00,,,0.00,WUHU216HW,2013-06-27 15:02:00,
2013-06-27 08:07:00,76.7,64.9,30.03,SE,135,2.0,3.1,67,0.00,,,0.00,WUHU216HW,2013-06-27 15:07:00,
2013-06-27 08:12:00,77.0,64.8,30.03,SSE,162,2.3,3.1,66,0.00,,,0.00,WUHU216HW,2013-06-27 15:12:00,
2013-06-27 08:17:00,77.2,65.0,30.03,SSW,192,1.9,2.5,66,0.00,,,0.00,WUHU216HW,2013-06-27 15:17:00,
2013-06-27 08:22:00,77.8,65.1,30.03,SSE,159,1.9,2.9,65,0.00,,,0.00,WUHU216HW,2013-06-27 15:22:00,
2013-06-27 08:27:00,77.9,65.3,30.04,SSE,148,2.6,4.0,65,0.00,,,0.00,WUHU216HW,2013-06-27 15:27:00,
2013-06-27 08:32:00,78.1,65.0,30.03,SSW,195,2.7,4.0,64,0.00,,,0.00,WUHU216HW,2013-06-27 15:32:00,
2013-06-27 08:37:00,78.1,64.5,30.04,South,183,3.0,3.6,63,0.00,,,0.00,WUHU216HW,2013-06-27 15:37:00,
2013-06-27 08:42:00,78.3,64.7,30.04,South,174,2.5,4.0,63,0.00,,,0.00,WUHU216HW,2013-06-27 15:42:00,
2013-06-27 08:47:00,78.7,65.0,30.04,South,173,3.4,5.6,63,0.00,,,0.00,WUHU216HW,2013-06-27 15:47:00,
2013-06-27 08:52:00,78.8,65.2,30.04,SE,146,2.8,4.0,63,0.00,,,0.00,WUHU216HW,2013-06-27 15:52:00,
2013-06-27 08:57:00,79.4,65.7,30.04,SSE,156,3.4,4.5,63,0.00,,,0.00,WUHU216HW,2013-06-27 15:57:00,
2013-06-27 09:02:00,79.9,65.8,30.04,South,169,3.0,4.0,62,0.00,,,0.00,WUHU216HW,2013-06-27 16:02:00,
2013-06-27 09:07:00,80.1,65.9,30.04,SSE,160,3.4,4.5,62,0.00,,,0.00,WUHU216HW,2013-06-27 16:07:00,
2013-06-27 09:12:00,80.6,66.0,30.04,SSE,160,3.3,4.9,61,0.00,,,0.00,WUHU216HW,2013-06-27 16:12:00,
2013-06-27 09:17:00,81.4,66.2,30.04,South,179,3.6,5.8,60,0.00,,,0.00,WUHU216HW,2013-06-27 16:17:00,
2013-06-27 09:22:00,81.9,66.7,30.04,SSE,155,3.0,4.0,60,0.00,,,0.00,WUHU216HW,2013-06-27 16:22:00,
2013-06-27 09:27:00,82.3,66.0,30.04,SSE,154,4.0,4.9,58,0.00,,,0.00,WUHU216HW,2013-06-27 16:27:00,
2013-06-27 09:32:00,82.6,65.8,30.03,SSE,162,3.2,4.3,57,0.00,,,0.00,WUHU216HW,2013-06-27 16:32:00,
2013-06-27 09:37:00,82.6,65.8,30.04,SSE,159,3.9,5.8,57,0.00,,,0.00,WUHU216HW,2013-06-27 16:37:00,
2013-06-27 09:42:00,83.0,65.6,30.03,SSE,168,3.7,5.1,56,0.00,,,0.00,WUHU216HW,2013-06-27 16:42:00,
2013-06-27 09:47:00,83.2,65.8,30.03,SSE,158,3.9,5.6,56,0.00,,,0.00,WUHU216HW,2013-06-27 16:47:00,
2013-06-27 09:52:00,83.2,65.8,30.03,South,183,3.7,5.6,56,0.00,,,0.00,WUHU216HW,2013-06-27 16:52:00,
2013-06-27 09:57:00,84.1,67.2,30.04,SSE,153,3.9,5.6,57,0.00,,,0.00,WUHU216HW,2013-06-27 16:57:00,
2013-06-27 10:02:00,84.6,66.7,30.03,SSE,168,4.0,6.0,55,0.00,,,0.00,WUHU216HW,2013-06-27 17:02:00,
2013-06-27 10:07:00,84.6,66.7,30.03,SSE,150,3.2,4.3,55,0.00,,,0.00,WUHU216HW,2013-06-27 17:07:00,
2013-06-27 10:12:00,85.1,67.1,30.03,South,175,3.9,5.6,55,0.00,,,0.00,WUHU216HW,2013-06-27 17:12:00,
2013-06-27 10:17:00,85.7,67.6,30.03,South,187,3.2,5.6,55,0.00,,,0.00,WUHU216HW,2013-06-27 17:17:00,
2013-06-27 10:22:00,86.0,66.9,30.03,South,185,3.3,5.1,53,0.00,,,0.00,WUHU216HW,2013-06-27 17:22:00,
2013-06-27 10:27:00,86.2,67.1,30.03,SSW,202,3.8,5.4,53,0.00,,,0.00,WUHU216HW,2013-06-27 17:27:00,
2013-06-27 10:32:00,86.8,67.6,30.03,South,169,3.5,4.9,53,0.00,,,0.00,WUHU216HW,2013-06-27 17:32:00,
2013-06-27 10:37:00,86.9,66.7,30.03,South,187,2.6,4.0,51,0.00,,,0.00,WUHU216HW,2013-06-27 17:37:00,
2013-06-27 10:42:00,87.1,66.9,30.03,SW,216,3.1,4.5,51,0.00,,,0.00,WUHU216HW,2013-06-27 17:42:00,
2013-06-27 10:47:00,87.3,67.1,30.03,South,178,2.9,5.4,51,0.00,,,0.00,WUHU216HW,2013-06-27 17:47:00,
2013-06-27 10:52:00,87.8,67.5,30.03,SE,142,2.2,4.7,51,0.00,,,0.00,WUHU216HW,2013-06-27 17:52:00,
2013-06-27 10:57:00,88.4,67.4,30.03,South,180,3.0,5.1,50,0.00,,,0.00,WUHU216HW,2013-06-27 17:57:00,
2013-06-27 11:02:00,88.2,67.3,30.03,SSE,163,2.7,5.1,50,0.00,,,0.00,WUHU216HW,2013-06-27 18:02:00,
2013-06-27 11:07:00,88.9,67.3,30.02,SSW,199,2.7,4.7,49,0.00,,,0.00,WUHU216HW,2013-06-27 18:07:00,
2013-06-27 11:12:00,89.5,67.2,30.02,SSW,196,2.8,4.7,48,0.00,,,0.00,WUHU216HW,2013-06-27 18:12:00,
2013-06-27 11:17:00,90.0,67.6,30.02,South,189,2.7,4.7,48,0.00,,,0.00,WUHU216HW,2013-06-27 18:17:00,
2013-06-27 11:22:00,90.0,67.6,30.02,SSE,167,3.8,5.4,48,0.00,,,0.00,WUHU216HW,2013-06-27 18:22:00,
2013-06-27 11:27:00,90.0,67.0,30.02,South,173,3.3,4.9,47,0.00,,,0.00,WUHU216HW,2013-06-27 18:27:00,
2013-06-27 11:32:00,90.4,68.0,30.02,SE,135,3.3,4.7,48,0.00,,,0.00,WUHU216HW,2013-06-27 18:32:00,
2013-06-27 11:37:00,90.5,67.4,30.02,SSW,193,3.5,5.4,47,0.00,,,0.00,WUHU216HW,2013-06-27 18:37:00,
2013-06-27 11:42:00,90.7,68.2,30.01,SE,140,2.2,3.4,48,0.00,,,0.00,WUHU216HW,2013-06-27 18:42:00,
2013-06-27 11:47:00,91.1,67.3,30.02,South,176,3.1,4.7,46,0.00,,,0.00,WUHU216HW,2013-06-27 18:47:00,
2013-06-27 11:52:00,91.6,68.4,30.01,South,175,2.3,4.9,47,0.00,,,0.00,WUHU216HW,2013-06-27 18:52:00,
2013-06-27 11:57:00,92.3,68.4,30.01,South,183,2.6,5.4,46,0.00,,,0.00,WUHU216HW,2013-06-27 18:57:00,
2013-06-27 12:02:00,92.7,68.1,30.01,SSE,166,3.1,5.4,45,0.00,,,0.00,WUHU216HW,2013-06-27 19:02:00,
2013-06-27 12:07:00,93.1,68.4,30.02,South,190,3.1,4.7,45,0.00,,,0.00,WUHU216HW,2013-06-27 19:07:00,
2013-06-27 12:12:00,93.4,68.1,30.01,SSE,165,2.8,5.6,44,0.00,,,0.00,WUHU216HW,2013-06-27 19:12:00,
2013-06-27 12:17:00,93.8,68.4,30.01,SSE,151,3.4,4.9,44,0.00,,,0.00,WUHU216HW,2013-06-27 19:17:00,
2013-06-27 12:27:00,94.3,68.3,30.00,South,184,2.5,6.0,43,0.00,,,0.00,WUHU216HW,2013-06-27 19:27:00,
2013-06-27 12:32:00,94.5,67.8,30.01,South,178,3.3,4.5,42,0.00,,,0.00,WUHU216HW,2013-06-27 19:32:00,
2013-06-27 12:37:00,94.3,67.6,30.01,SW,221,2.4,4.5,42,0.00,,,0.00,WUHU216HW,2013-06-27 19:37:00,
2013-06-27 12:42:00,94.5,67.8,30.00,SSW,213,2.6,4.3,42,0.00,,,0.00,WUHU216HW,2013-06-27 19:42:00,
2013-06-27 12:47:00,94.5,67.8,30.00,SSW,200,1.7,2.5,42,0.00,,,0.00,WUHU216HW,2013-06-27 19:47:00,
2013-06-27 12:52:00,95.0,68.3,30.00,SSE,156,2.7,3.6,42,0.00,,,0.00,WUHU216HW,2013-06-27 19:52:00,
2013-06-27 12:57:00,95.0,67.6,30.00,SSW,196,2.6,5.1,41,0.00,,,0.00,WUHU216HW,2013-06-27 19:57:00,
2013-06-27 13:02:00,95.4,68.0,30.00,WNW,287,1.9,3.6,41,0.00,,,0.00,WUHU216HW,2013-06-27 20:02:00,
2013-06-27 13:07:00,95.4,68.0,30.00,SW,214,2.1,3.4,41,0.00,,,0.00,WUHU216HW,2013-06-27 20:07:00,
2013-06-27 13:12:00,96.1,68.0,30.00,South,174,2.3,5.4,40,0.00,,,0.00,WUHU216HW,2013-06-27 20:12:00,
2013-06-27 13:18:00,96.1,67.2,30.00,South,176,2.8,4.5,39,0.00,,,0.00,WUHU216HW,2013-06-27 20:18:00,
2013-06-27 13:23:00,96.3,67.2,29.99,SSW,198,1.8,3.4,39,0.00,,,0.00,WUHU216HW,2013-06-27 20:23:00,
2013-06-27 13:28:00,96.1,66.3,29.99,WSW,257,1.9,3.4,38,0.00,,,0.00,WUHU216HW,2013-06-27 20:28:00,
2013-06-27 13:33:00,96.3,66.4,29.99,West,275,2.6,5.4,38,0.00,,,0.00,WUHU216HW,2013-06-27 20:33:00,
2013-06-27 13:38:00,96.5,67.4,29.99,SSW,207,2.2,4.7,39,0.00,,,0.00,WUHU216HW,2013-06-27 20:38:00,
2013-06-27 13:43:00,97.2,67.2,29.99,South,181,2.2,3.4,38,0.00,,,0.00,WUHU216HW,2013-06-27 20:43:00,
2013-06-27 13:48:00,97.6,67.6,29.99,West,273,2.2,4.0,38,0.00,,,0.00,WUHU216HW,2013-06-27 20:48:00,
2013-06-27 13:53:00,97.2,67.2,29.98,WNW,284,2.7,4.7,38,0.00,,,0.00,WUHU216HW,2013-06-27 20:53:00,
2013-06-27 13:58:00,97.2,67.2,29.98,WNW,298,2.4,4.9,38,0.00,,,0.00,WUHU216HW,2013-06-27 20:58:00,
2013-06-27 14:03:00,97.4,65.8,29.98,West,281,2.8,5.1,36,0.00,,,0.00,WUHU216HW,2013-06-27 21:03:00,
2013-06-27 14:08:00,97.2,66.4,29.98,WNW,289,3.1,4.7,37,0.00,,,0.00,WUHU216HW,2013-06-27 21:08:00,
2013-06-27 14:13:00,97.6,67.6,29.98,West,259,2.2,3.6,38,0.00,,,0.00,WUHU216HW,2013-06-27 21:13:00,
2013-06-27 14:19:00,98.3,67.4,29.98,South,176,2.9,5.4,37,0.00,,,0.00,WUHU216HW,2013-06-27 21:19:00,
2013-06-27 14:24:00,98.1,66.4,29.98,West,270,2.5,4.5,36,0.00,,,0.00,WUHU216HW,2013-06-27 21:24:00,
2013-06-27 14:29:00,97.9,66.2,29.98,WNW,301,3.9,6.9,36,0.00,,,0.00,WUHU216HW,2013-06-27 21:29:00,
2013-06-27 14:34:00,97.9,66.2,29.97,West,266,1.8,3.8,36,0.00,,,0.00,WUHU216HW,2013-06-27 21:34:00,
2013-06-27 14:39:00,97.9,66.2,29.97,SSW,209,3.5,6.3,36,0.00,,,0.00,WUHU216HW,2013-06-27 21:39:00,
2013-06-27 14:44:00,97.7,66.9,29.97,NNW,328,2.2,4.0,37,0.00,,,0.00,WUHU216HW,2013-06-27 21:44:00,
2013-06-27 14:49:00,98.3,68.2,29.97,WNW,295,1.7,2.7,38,0.00,,,0.00,WUHU216HW,2013-06-27 21:49:00,
2013-06-27 14:54:00,98.6,67.7,29.97,SSW,210,1.7,2.7,37,0.00,,,0.00,WUHU216HW,2013-06-27 21:54:00,
2013-06-27 14:59:00,98.8,66.3,29.97,West,281,2.8,7.4,35,0.00,,,0.00,WUHU216HW,2013-06-27 21:59:00,
2013-06-27 15:04:00,98.6,66.1,29.97,WNW,286,3.2,5.6,35,0.00,,,0.00,WUHU216HW,2013-06-27 22:04:00,
2013-06-27 15:10:00,99.0,66.4,29.97,West,269,4.1,6.5,35,0.00,,,0.00,WUHU216HW,2013-06-27 22:10:00,
2013-06-27 15:15:00,99.2,66.5,29.97,WNW,285,4.0,6.5,35,0.00,,,0.00,WUHU216HW,2013-06-27 22:15:00,
2013-06-27 15:20:00,99.0,67.2,29.97,NW,322,1.7,2.7,36,0.00,,,0.00,WUHU216HW,2013-06-27 22:20:00,
2013-06-27 15:25:00,99.4,66.7,29.96,WNW,287,3.9,6.3,35,0.00,,,0.00,WUHU216HW,2013-06-27 22:25:00,
2013-06-27 15:30:00,99.4,66.7,29.96,NW,317,2.5,4.7,35,0.00,,,0.00,WUHU216HW,2013-06-27 22:30:00,
2013-06-27 15:35:00,99.0,66.4,29.96,WNW,288,1.6,3.6,35,0.00,,,0.00,WUHU216HW,2013-06-27 22:35:00,
2013-06-27 15:40:00,99.2,66.5,29.96,NW,310,3.2,5.8,35,0.00,,,0.00,WUHU216HW,2013-06-27 22:40:00,
2013-06-27 15:45:00,99.7,67.1,29.96,SW,235,2.0,3.6,35,0.00,,,0.00,WUHU216HW,2013-06-27 22:45:00,
2013-06-27 15:50:00,100.1,66.5,29.96,NW,306,3.0,5.4,34,0.00,,,0.00,WUHU216HW,2013-06-27 22:50:00,
2013-06-27 15:55:00,99.9,66.3,29.95,NW,319,1.8,4.0,34,0.00,,,0.00,WUHU216HW,2013-06-27 22:55:00,
2013-06-27 16:00:00,100.1,66.5,29.95,WSW,245,2.5,4.5,34,0.00,,,0.00,WUHU216HW,2013-06-27 23:00:00,
2013-06-27 16:05:00,100.1,65.7,29.95,WNW,287,3.2,5.4,33,0.00,,,0.00,WUHU216HW,2013-06-27 23:05:00,
2013-06-27 16:10:00,100.1,65.7,29.95,West,274,3.6,6.5,33,0.00,,,0.00,WUHU216HW,2013-06-27 23:10:00,
2013-06-27 16:15:00,100.1,64.9,29.95,WNW,301,4.3,6.3,32,0.00,,,0.00,WUHU216HW,2013-06-27 23:15:00,
2013-06-27 16:20:00,100.1,65.7,29.95,WNW,293,3.5,5.8,33,0.00,,,0.00,WUHU216HW,2013-06-27 23:20:00,
2013-06-27 16:25:00,99.7,65.3,29.95,WNW,291,3.9,6.3,33,0.00,,,0.00,WUHU216HW,2013-06-27 23:25:00,
2013-06-27 16:31:00,99.5,65.3,29.95,NW,323,3.2,6.9,33,0.00,,,0.00,WUHU216HW,2013-06-27 23:31:00,
2013-06-27 16:36:00,99.9,64.7,29.95,West,278,2.8,4.7,32,0.00,,,0.00,WUHU216HW,2013-06-27 23:36:00,
2013-06-27 16:41:00,99.9,64.7,29.95,WNW,282,2.7,5.1,32,0.00,,,0.00,WUHU216HW,2013-06-27 23:41:00,
2013-06-27 16:46:00,99.9,64.7,29.95,WNW,302,4.2,5.8,32,0.00,,,0.00,WUHU216HW,2013-06-27 23:46:00,
2013-06-27 16:51:00,99.7,64.5,29.95,NW,312,3.7,6.3,32,0.00,,,0.00,WUHU216HW,2013-06-27 23:51:00,
2013-06-27 16:56:00,99.7,64.5,29.95,NW,305,4.3,6.3,32,0.00,,,0.00,WUHU216HW,2013-06-27 23:56:00,
2013-06-27 17:01:00,99.5,65.3,29.94,WNW,285,3.4,5.4,33,0.00,,,0.00,WUHU216HW,2013-06-28 00:01:00,
2013-06-27 17:06:00,99.4,65.1,29.94,NW,309,2.9,5.4,33,0.00,,,0.00,WUHU216HW,2013-06-28 00:06:00,
2013-06-27 17:11:00,99.4,65.1,29.94,WNW,290,3.8,5.1,33,0.00,,,0.00,WUHU216HW,2013-06-28 00:11:00,
2013-06-27 17:16:00,99.4,65.1,29.94,WNW,295,3.8,6.3,33,0.00,,,0.00,WUHU216HW,2013-06-28 00:16:00,
2013-06-27 17:21:00,99.0,64.7,29.94,NW,310,3.2,6.9,33,0.00,,,0.00,WUHU216HW,2013-06-28 00:21:00,
2013-06-27 17:26:00,99.0,65.5,29.94,NW,310,3.3,5.1,34,0.00,,,0.00,WUHU216HW,2013-06-28 00:26:00,
2013-06-27 17:32:00,99.2,64.9,29.93,WNW,296,2.4,4.5,33,0.00,,,0.00,WUHU216HW,2013-06-28 00:32:00,
2013-06-27 17:37:00,99.2,64.9,29.93,West,273,4.7,5.8,33,0.00,,,0.00,WUHU216HW,2013-06-28 00:37:00,
2013-06-27 17:42:00,99.2,65.7,29.93,WNW,287,2.6,5.1,34,0.00,,,0.00,WUHU216HW,2013-06-28 00:42:00,
2013-06-27 17:47:00,99.0,64.7,29.93,NW,306,4.0,5.1,33,0.00,,,0.00,WUHU216HW,2013-06-28 00:47:00,
2013-06-27 17:52:00,99.0,65.5,29.93,NW,307,3.9,5.8,34,0.00,,,0.00,WUHU216HW,2013-06-28 00:52:00,
2013-06-27 17:57:00,98.8,65.4,29.93,WNW,298,5.0,7.2,34,0.00,,,0.00,WUHU216HW,2013-06-28 00:57:00,
2013-06-27 18:02:00,98.6,65.3,29.93,NW,311,3.6,5.4,34,0.00,,,0.00,WUHU216HW,2013-06-28 01:02:00,
2013-06-27 18:07:00,98.5,64.3,29.93,NW,306,4.0,5.6,33,0.00,,,0.00,WUHU216HW,2013-06-28 01:07:00,
2013-06-27 18:12:00,98.3,64.9,29.93,WNW,295,4.3,6.3,34,0.00,,,0.00,WUHU216HW,2013-06-28 01:12:00,
2013-06-27 18:17:00,98.1,64.7,29.93,NW,306,3.7,5.6,34,0.00,,,0.00,WUHU216HW,2013-06-28 01:17:00,
2013-06-27 18:22:00,98.3,64.9,29.93,NW,306,3.8,4.9,34,0.00,,,0.00,WUHU216HW,2013-06-28 01:22:00,
2013-06-27 18:27:00,98.3,64.9,29.92,WNW,303,4.0,5.1,34,0.00,,,0.00,WUHU216HW,2013-06-28 01:27:00,
2013-06-27 18:32:00,98.3,64.9,29.92,NW,306,4.2,5.8,34,0.00,,,0.00,WUHU216HW,2013-06-28 01:32:00,
2013-06-27 18:37:00,97.9,64.6,29.92,WNW,300,3.9,5.4,34,0.00,,,0.00,WUHU216HW,2013-06-28 01:37:00,
2013-06-27 18:42:00,97.9,65.4,29.92,NW,309,3.7,5.1,35,0.00,,,0.00,WUHU216HW,2013-06-28 01:42:00,
2013-06-27 18:47:00,97.9,65.4,29.92,NW,313,3.9,5.8,35,0.00,,,0.00,WUHU216HW,2013-06-28 01:47:00,
2013-06-27 18:52:00,97.7,65.3,29.92,WNW,300,4.2,6.0,35,0.00,,,0.00,WUHU216HW,2013-06-28 01:52:00,
2013-06-27 18:57:00,97.6,64.3,29.92,NW,312,4.1,5.6,34,0.00,,,0.00,WUHU216HW,2013-06-28 01:57:00,
2013-06-27 19:02:00,97.4,64.1,29.92,WNW,296,4.7,6.5,34,0.00,,,0.00,WUHU216HW,2013-06-28 02:02:00,
2013-06-27 19:07:00,97.2,63.9,29.92,WNW,302,3.8,4.5,34,0.00,,,0.00,WUHU216HW,2013-06-28 02:07:00,
2013-06-27 19:12:00,97.0,64.6,29.92,WNW,301,3.7,4.9,35,0.00,,,0.00,WUHU216HW,2013-06-28 02:12:00,
2013-06-27 19:17:00,96.8,64.4,29.92,NW,308,3.4,4.7,35,0.00,,,0.00,WUHU216HW,2013-06-28 02:17:00,
2013-06-27 19:22:00,96.8,64.4,29.92,WNW,299,3.5,4.7,35,0.00,,,0.00,WUHU216HW,2013-06-28 02:22:00,
2013-06-27 19:27:00,96.5,64.2,29.92,NW,311,4.0,4.9,35,0.00,,,0.00,WUHU216HW,2013-06-28 02:27:00,
2013-06-27 19:32:00,96.3,64.0,29.92,NW,311,3.1,4.5,35,0.00,,,0.00,WUHU216HW,2013-06-28 02:32:00,
2013-06-27 19:37:00,96.1,63.8,29.93,NW,308,2.4,3.1,35,0.00,,,0.00,WUHU216HW,2013-06-28 02:37:00,
2013-06-27 19:42:00,95.9,63.7,29.93,WNW,289,2.3,3.1,35,0.00,,,0.00,WUHU216HW,2013-06-28 02:42:00,
2013-06-27 19:47:00,95.8,64.4,29.93,WNW,295,1.8,2.5,36,0.00,,,0.00,WUHU216HW,2013-06-28 02:47:00,
2013-06-27 19:52:00,95.6,64.2,29.93,WNW,292,1.8,2.5,36,0.00,,,0.00,WUHU216HW,2013-06-28 02:52:00,
2013-06-27 19:57:00,95.4,64.0,29.93,WNW,289,1.3,2.5,36,0.00,,,0.00,WUHU216HW,2013-06-28 02:57:00,
2013-06-27 20:02:00,95.2,63.9,29.93,West,274,0.9,1.6,36,0.00,,,0.00,WUHU216HW,2013-06-28 03:02:00,
2013-06-27 20:08:00,95.0,65.3,29.93,West,270,0.7,0.7,38,0.00,,,0.00,WUHU216HW,2013-06-28 03:08:00,
2013-06-27 20:13:00,94.7,65.8,29.93,North,0,0.0,0.0,39,0.00,,,0.00,WUHU216HW,2013-06-28 03:13:00,
2013-06-27 20:18:00,94.1,66.2,29.93,North,0,0.0,0.0,40,0.00,,,0.00,WUHU216HW,2013-06-28 03:18:00,
2013-06-27 20:23:00,93.6,66.3,29.93,North,0,0.0,0.0,41,0.00,,,0.00,WUHU216HW,2013-06-28 03:23:00,
2013-06-27 20:28:00,93.1,65.8,29.93,North,0,0.0,0.0,41,0.00,,,0.00,WUHU216HW,2013-06-28 03:28:00,
2013-06-27 20:33:00,92.3,65.8,29.93,North,0,0.0,0.0,42,0.00,,,0.00,WUHU216HW,2013-06-28 03:33:00,
2013-06-27 20:38:00,91.8,66.0,29.94,North,0,0.0,0.0,43,0.00,,,0.00,WUHU216HW,2013-06-28 03:38:00,
2013-06-27 20:43:00,91.1,66.6,29.94,North,0,0.0,0.0,45,0.00,,,0.00,WUHU216HW,2013-06-28 03:43:00,
2013-06-27 20:48:00,90.5,66.8,29.95,North,0,0.0,0.0,46,0.00,,,0.00,WUHU216HW,2013-06-28 03:48:00,
2013-06-27 20:53:00,90.2,66.5,29.94,North,0,0.0,0.0,46,0.00,,,0.00,WUHU216HW,2013-06-28 03:53:00,
2013-06-27 20:58:00,89.6,66.6,29.95,North,0,0.0,0.0,47,0.00,,,0.00,WUHU216HW,2013-06-28 03:58:00,
2013-06-27 21:03:00,89.1,66.8,29.95,North,0,0.0,0.0,48,0.00,,,0.00,WUHU216HW,2013-06-28 04:03:00,
2013-06-27 21:08:00,88.6,67.0,29.95,North,0,0.0,0.0,49,0.00,,,0.00,WUHU216HW,2013-06-28 04:08:00,
2013-06-27 21:13:00,88.0,66.5,29.95,North,0,0.0,0.0,49,0.00,,,0.00,WUHU216HW,2013-06-28 04:13:00,
2013-06-27 21:18:00,87.7,66.8,29.95,North,0,0.0,0.0,50,0.00,,,0.00,WUHU216HW,2013-06-28 04:18:00,
2013-06-27 21:23:00,87.5,66.6,29.95,North,0,0.0,0.0,50,0.00,,,0.00,WUHU216HW,2013-06-28 04:23:00,
2013-06-27 21:28:00,87.1,66.9,29.95,North,0,0.0,0.0,51,0.00,,,0.00,WUHU216HW,2013-06-28 04:28:00,
2013-06-27 21:33:00,86.8,66.5,29.96,North,0,0.0,0.0,51,0.00,,,0.00,WUHU216HW,2013-06-28 04:33:00,
2013-06-27 21:38:00,86.6,66.3,29.95,North,0,0.0,0.0,51,0.00,,,0.00,WUHU216HW,2013-06-28 04:38:00,
2013-06-27 21:43:00,86.0,66.4,29.95,North,0,0.0,0.0,52,0.00,,,0.00,WUHU216HW,2013-06-28 04:43:00,
2013-06-27 21:48:00,85.9,66.3,29.96,North,0,0.0,0.0,52,0.00,,,0.00,WUHU216HW,2013-06-28 04:48:00,
2013-06-27 21:53:00,85.5,66.4,29.96,North,0,0.0,0.0,53,0.00,,,0.00,WUHU216HW,2013-06-28 04:53:00,
2013-06-27 21:58:00,85.1,66.6,29.96,North,0,0.0,0.0,54,0.00,,,0.00,WUHU216HW,2013-06-28 04:58:00,
2013-06-27 22:03:00,84.8,66.3,29.97,North,0,0.0,0.0,54,0.00,,,0.00,WUHU216HW,2013-06-28 05:03:00,
2013-06-27 22:08:00,84.4,66.5,29.97,North,0,0.0,0.0,55,0.00,,,0.00,WUHU216HW,2013-06-28 05:08:00,
2013-06-27 22:13:00,84.1,66.2,29.97,North,0,0.0,0.0,55,0.00,,,0.00,WUHU216HW,2013-06-28 05:13:00,
2013-06-27 22:18:00,83.7,65.8,29.97,North,0,0.0,0.0,55,0.00,,,0.00,WUHU216HW,2013-06-28 05:18:00,
2013-06-27 22:23:00,83.5,66.7,29.97,North,0,0.0,0.0,57,0.00,,,0.00,WUHU216HW,2013-06-28 05:23:00,
2013-06-27 22:28:00,83.3,66.0,29.97,North,0,0.0,0.0,56,0.00,,,0.00,WUHU216HW,2013-06-28 05:28:00,
2013-06-27 22:33:00,83.2,65.8,29.97,North,0,0.0,0.0,56,0.00,,,0.00,WUHU216HW,2013-06-28 05:33:00,
2013-06-27 22:38:00,82.8,66.0,29.97,North,0,0.0,0.0,57,0.00,,,0.00,WUHU216HW,2013-06-28 05:38:00,
2013-06-27 22:43:00,82.6,65.8,29.97,North,0,0.0,0.0,57,0.00,,,0.00,WUHU216HW,2013-06-28 05:43:00,
2013-06-27 22:48:00,82.3,65.4,29.97,North,0,0.0,0.0,57,0.00,,,0.00,WUHU216HW,2013-06-28 05:48:00,
2013-06-27 22:53:00,81.9,65.6,29.97,North,0,0.0,0.0,58,0.00,,,0.00,WUHU216HW,2013-06-28 05:53:00,
2013-06-27 22:58:00,81.7,65.4,29.97,South,180,0.3,0.7,58,0.00,,,0.00,WUHU216HW,2013-06-28 05:58:00,
2013-06-27 23:03:00,81.7,66.0,29.97,North,0,0.0,0.0,59,0.00,,,0.00,WUHU216HW,2013-06-28 06:03:00,
2013-06-27 23:08:00,81.7,66.0,29.97,North,0,0.0,0.0,59,0.00,,,0.00,WUHU216HW,2013-06-28 06:08:00,
2013-06-27 23:13:00,81.5,65.8,29.97,North,0,0.0,0.0,59,0.00,,,0.00,WUHU216HW,2013-06-28 06:13:00,
2013-06-27 23:18:00,81.2,65.5,29.97,South,180,0.2,0.4,59,0.00,,,0.00,WUHU216HW,2013-06-28 06:18:00,
2013-06-27 23:23:00,81.0,65.9,29.97,North,0,0.0,0.0,60,0.00,,,0.00,WUHU216HW,2013-06-28 06:23:00,
2013-06-27 23:28:00,80.6,65.5,29.97,SE,137,0.5,0.9,60,0.00,,,0.00,WUHU216HW,2013-06-28 06:28:00,
2013-06-27 23:33:00,80.5,65.8,29.97,East,98,0.4,0.9,61,0.00,,,0.00,WUHU216HW,2013-06-28 06:33:00,
2013-06-27 23:38:00,80.5,65.8,29.97,North,0,0.0,0.0,61,0.00,,,0.00,WUHU216HW,2013-06-28 06:38:00,
2013-06-27 23:43:00,80.3,65.2,29.97,North,0,0.0,0.0,60,0.00,,,0.00,WUHU216HW,2013-06-28 06:43:00,
2013-06-27 23:48:00,80.1,65.5,29.97,North,0,0.0,0.0,61,0.00,,,0.00,WUHU216HW,2013-06-28 06:48:00,
2013-06-27 23:53:00,79.9,65.4,29.97,North,0,0.0,0.0,61,0.00,,,0.00,WUHU216HW,2013-06-28 06:53:00,
2013-06-27 23:58:00,79.7,65.6,29.97,North,0,0.4,0.4,62,0.00,,,0.00,WUHU216HW,2013-06-28 06:58:00,